BEIDOU 4

Last updated on Sat Jun 01 2019 03:12:31 GMT+0000 (Coordinated Universal Time)

1 36590U 10024A 19151.45282164 -.00000127 00000-0 00000+0 0 9999 2 36590 1.6395 39.6166 0004335 66.2674 25.4303 1.00272670 32979
UTC large
Height (km)
Speed (km/s)
/
Latitude / Longitude
Inclination (degrees)
Orbital Period (minutes)
Azimuth
Elevation
Range (km)
Doppler Factor

Next 0 passes for location: London (51.5072 / 0.1276)

Sorry there are no passes over London.
BEIDOU 4